FW3119 Weather Reports


time (UTC)temp
C
wind
direction
speed
KPH
gust
KPH
rain 1hr
cm
rain 24hr
cm
rain mn
cm
humidity
%
barometer
mb
20260507020023 5 23 0.0 0.0 0.00 1.02 0.00 96 945.4
20260507014521 5 18 0.0 0.0 0.00 1.02 0.00 96 945.3
20260507013016 5 53 0.0 0.0 0.00 1.02 0.00 96 945.6
20260507011511 5 27 0.0 0.0 0.00 1.02 0.00 96 945.5
20260507010002 5 13 0.0 0.0 0.00 1.02 0.00 96 945.5
20260507004600 5 29 0.0 0.0 0.00 1.02 0.00 96 945.1
20260507003059 5 33 0.0 0.0 0.00 1.02 0.00 96 945.1
20260507001504 5 57 0.0 0.0 0.00 1.02 0.00 96 945.0
20260507000003 5 20 0.0 0.0 0.00 1.02 0.00 96 944.7
20260506234503 5 329 0.0 0.0 0.00 1.02 0.00 96 944.6
20260506233101 5 24 0.0 0.0 0.00 1.02 0.00 96 944.6
20260506231555 6 16 0.0 0.0 0.00 1.02 0.00 96 944.4
20260506230050 6 355 0.0 0.0 0.00 1.02 1.02 96 944.1
20260506224550 6 46 0.0 0.0 0.00 1.02 1.02 96 943.8
20260506223056 6 11 0.0 0.0 0.00 1.02 1.02 96 943.5
20260506221600 6 53 0.0 0.0 0.00 1.02 1.02 96 943.6
20260506221501 6 22 0.0 0.0 0.00 1.02 1.02 96 943.6
20260506220101 6 54 0.0 0.0 0.00 1.02 1.02 96 943.5
20260506214557 6 18 0.0 0.0 0.00 1.02 1.02 96 943.5
20260506213056 6 49 0.0 0.0 0.00 1.02 1.02 96 943.3
20260506211547 6 30 0.0 0.0 0.00 1.02 1.02 96 942.9
20260506210045 7 355 0.0 0.0 0.03 1.32 1.02 96 942.6
20260506204553 7 30 0.0 0.0 0.03 1.32 1.02 96 942.3
20260506203041 7 323 0.0 0.0 0.03 1.32 1.02 95 942.1
20260506201539 8 21 0.0 0.0 0.05 1.32 1.02 95 941.9
20260506200035 8 344 0.0 0.0 0.03 1.30 0.99 95 942.0
20260506194534 8 32 0.0 0.0 0.03 1.30 0.99 95 941.9
20260506193027 10 340 0.0 0.0 0.03 1.30 0.99 95 941.7
20260506191539 12 9 0.0 0.0 0.00 1.27 0.97 95 941.5
20260506190040 12 224 0.0 0.0 0.00 1.27 0.97 96 941.1
20260506184539 12 200 0.0 0.0 0.00 1.27 0.97 96 941.2
20260506183045 12 189 0.0 0.0 0.00 1.27 0.97 96 941.2
20260506181536 12 171 0.0 0.0 0.00 1.27 0.97 96 941.3
20260506180033 12 242 0.0 0.0 0.00 1.27 0.97 96 941.2
20260506174532 12 166 0.0 0.0 0.00 1.27 0.97 96 941.3
20260506173030 12 187 0.0 0.0 0.03 1.27 0.97 96 941.4
20260506171543 12 204 0.0 0.0 0.03 1.27 0.97 96 941.4
20260506170040 12 216 0.0 0.0 0.08 1.27 0.97 96 941.5
20260506164544 12 238 0.0 0.0 0.10 1.27 0.97 96 941.5
20260506163035 12 133 0.0 0.0 0.15 1.27 0.97 96 941.7
20260506161537 12 227 0.0 0.0 0.15 1.24 0.94 96 941.7
20260506160040 12 219 0.0 0.0 0.18 1.22 0.91 96 941.8
20260506154531 12 162 0.0 0.0 0.15 1.17 0.86 96 941.8
20260506153026 12 262 0.0 0.0 0.18 1.14 0.84 96 941.9
20260506151532 12 252 0.0 0.0 0.18 1.09 0.79 96 941.6
20260506150031 12 197 0.0 0.0 0.18 1.04 0.71 95 941.8
20260506144523 12 213 0.0 0.0 0.23 1.02 0.71 95 941.7
20260506143037 11 209 0.0 0.0 0.28 0.99 0.69 95 941.6
20260506141545 11 186 0.0 0.0 0.25 0.94 0.64 95 941.8
20260506140043 11 171 0.0 0.0 0.20 0.86 0.56 95 942.0
20260506134541 11 176 0.0 0.0 0.18 0.81 0.51 94 942.2
20260506133042 11 188 0.0 0.0 0.13 0.71 0.43 94 942.7
20260506131516 11 223 0.0 0.0 0.10 0.69 0.38 94 942.9
20260506130012 11 201 0.0 0.0 0.08 0.66 0.36 94 943.0
20260506124512 11 227 0.0 0.0 0.08 0.64 0.33 94 942.5
20260506123012 11 216 0.0 0.0 0.08 0.61 0.30 93 942.6
20260506121516 11 263 0.0 0.0 0.08 0.58 0.28 93 942.8
20260506120015 11 203 0.0 0.0 0.10 0.58 0.28 93 942.6
20260506114520 11 204 0.0 0.0 0.10 0.56 0.25 92 942.7
20260506113014 11 208 0.0 0.0 0.13 0.53 0.23 92 942.7
20260506111512 11 182 0.0 0.0 0.10 0.51 0.20 91 942.9
20260506110013 11 190 0.0 0.0 0.10 0.48 0.18 91 943.1
20260506104509 11 226 0.0 0.0 0.10 0.46 0.15 89 943.0
20260506103015 12 197 0.0 0.0 0.10 0.43 0.13 88 942.7
20260506101501 12 180 0.0 0.0 0.08 0.41 0.10 86 942.6
20260506100101 12 205 0.0 0.0 0.05 0.38 0.08 84 942.5
20260506094601 13 185 0.0 0.0 0.03 0.36 0.05 82 942.4
20260506093105 13 185 0.0 0.0 0.00 0.33 0.03 80 942.3
20260506091506 13 185 0.0 0.0 0.00 0.33 0.03 79 942.3
20260506090007 13 185 0.0 0.0 0.00 0.33 0.03 81 942.5
20260506084515 12 203 0.0 0.0 0.00 0.33 0.03 85 942.5
20260506083005 12 209 0.0 0.0 0.00 0.33 0.03 86 942.2
20260506081517 12 191 0.0 0.0 0.00 0.33 0.03 90 942.1
20260506073014 11 151 0.0 0.0 0.00 0.33 0.03 94 942.4
20260506071513 11 150 0.0 0.0 0.00 0.33 0.03 94 942.5
20260506061548 11 21 0.0 0.0 0.00 0.33 0.03 94 943.1
20260506044534 11 21 0.0 0.0 0.00 0.33 0.03 93 944.1
20260506043029 12 21 0.0 0.0 0.00 0.33 0.03 92 944.4
20260506041557 12 21 0.0 0.0 0.00 0.33 0.03 92 944.6
20260506040044 12 21 0.0 0.0 0.00 0.33 0.03 92 944.7
20260506034545 13 21 0.0 0.0 0.00 0.33 0.03 92 944.7
20260506033039 13 11 0.0 0.0 0.00 0.33 0.03 92 944.5
20260506031525 13 20 0.0 0.0 0.00 0.33 0.03 92 944.5
20260506030023 14 13 0.0 0.0 0.03 0.33 0.03 91 944.5
20260506024517 15 11 0.0 0.0 0.03 0.33 0.03 89 944.3
20260506023012 15 355 0.0 0.0 0.03 0.33 0.03 88 944.4
20260506021520 15 355 0.0 0.0 0.03 0.33 0.03 85 944.2